Regional Weather Roundup
Issued by NWS

Home | Current Version | Previous Version | Text Only | Print | Product List | Glossary Off
Versions: 1 2 3 4 5 6 7 8 9 10 11 12 13 14 15 16 17 18 19 20 21 22 23 24 25 26 27 28 29 30 31 32 33 34 35 36 37 38 39 40 41 42 43 44 45 46 47 48 49 50

000
ASUS43 KOAX 032302
RWRNE

WEATHER ROUNDUP FOR NEBRASKA
NATIONAL WEATHER SERVICE OMAHA NE
600 PM CDT MON AUG 03 2015

NOTES: SATELLITE DATA IS BEING USED TO AUGMENT CLOUD COVER ABOVE
       12000 FEET.
       "FAIR" INDICATES FEW OR NO CLOUDS BELOW 12,000 FEET WITH NO
       SIGNIFICANT WEATHER AND/OR OBSTRUCTIONS TO VISIBILITY.

  * THESE STATIONS DO NOT REPORT WEATHER SUCH AS RAIN...SNOW OR FOG.

NEZ001>004-019>022-054>056-040000-
NEBRASKA PANHANDLE

CITY           SKY/WX    TMP DP  RH WIND       PRES   REMARKS
SCOTTSBLUFF    PTSUNNY   88  63  43 E12       29.94F
ALLIANCE       PTSUNNY   86  61  42 SE13      29.96F
CHADRON        CLOUDY    90  60  36 SE6       29.90F
KIMBALL        CLOUDY    84  49  28 S9        30.02F
SIDNEY         CLOUDY    87  51  28 S16       30.01F
$$

NEZ057>060-069>072-079>082-040000-
SOUTHWEST NEBRASKA

CITY           SKY/WX    TMP DP  RH WIND       PRES   REMARKS
NORTH PLATTE   PTSUNNY   82  69  64 E13       29.95F
IMPERIAL       CLOUDY    88  65  46 E10       29.95F HX  90
LEXINGTON      PTSUNNY   84  70  61 SE8       29.96S
MCCOOK         PTSUNNY   86  69  56 E16       29.93F HX  90
OGALLALA       CLOUDY    85  66  52 SE9       29.97F
$$

NEZ005>010-023>029-035>040-094-040000-
NORTH CENTRAL NEBRASKA

CITY           SKY/WX    TMP DP  RH WIND       PRES   REMARKS
AINSWORTH      PTSUNNY   81  61  51 E10G17    29.98F
BROKEN BOW     PTSUNNY   86  63  45 SE10G20   29.96F
O`NEILL        PTSUNNY   82  61  48 SE6       29.98S
ORD            PTSUNNY   80  62  54 E9        29.95F
THEDFORD       PTSUNNY   85  62  45 SE12      29.97F
$$

NEZ041-046>049-061>064-073>077-083>087-040000-
SOUTH CENTRAL NEBRASKA

CITY           SKY/WX    TMP DP  RH WIND       PRES   REMARKS
GRAND ISLAND   PTSUNNY   80  64  58 E9        29.96F
AURORA         PTSUNNY   79  67  66 E8        29.96S
HASTINGS       CLOUDY    79  69  71 E12       29.96S
HEBRON         PTSUNNY   83  70  64 E14       29.92S
HOLDREGE       CLOUDY    81  71  72 E9        29.95F
KEARNEY *      CLOUDY    81  68  65 E13       29.96S
YORK           PTSUNNY   79  68  69 E8        29.96S
$$

NEZ011>018-030>034-042>045-040000-
NORTHEAST NEBRASKA

CITY           SKY/WX    TMP DP  RH WIND       PRES   REMARKS
NORFOLK        MOSUNNY   80  61  52 E7        29.97S
ALBION         MOSUNNY   78  63  58 E6        29.97F
BLAIR          MOSUNNY   78  61  56 NE3       29.96F
COLUMBUS *     PTSUNNY   81  63  54 NE8       29.95F
FREMONT        MOSUNNY   80  60  49 N6        29.96F
TEKAMAH        CLOUDY    82  65  56 CALM      29.95F
WAYNE          PTSUNNY   80  64  58 S3        29.97F
$$

NEZ050>053-065>068-078-088>093-040000-
SOUTHEAST NEBRASKA

CITY           SKY/WX    TMP DP  RH WIND       PRES   REMARKS
LINCOLN        PTSUNNY   83  64  52 E9        29.95S
OMAHA EPPLEY   PTSUNNY   82  62  50 N6        29.94F
BEATRICE       MOSUNNY   81  68  64 NE9       29.94F
FALLS CITY     CLOUDY    80  71  74 E9        29.92S
NEBRASKA CITY  MOSUNNY   79  65  62 E7        29.94F
PLATTSMOUTH    PTSUNNY   79  62  54 NE7       29.94F
$$

NEZ044-045-051>053-067-040000-
OMAHA AREA

CITY           SKY/WX    TMP DP  RH WIND       PRES   REMARKS
OMAHA EPPLEY   PTSUNNY   82  62  50 N6        29.94F
BLAIR          MOSUNNY   78  61  56 NE3       29.96F
FREMONT        MOSUNNY   80  60  49 N6        29.96F
MILLARD        MOSUNNY   82  61  49 NE3       29.94F
OFFUTT AFB     MOSUNNY   80  64  58 NE7       29.93F
PLATTSMOUTH    PTSUNNY   79  62  54 NE7       29.94F
WAHOO          FAIR      80  66  61 NE8       29.95F
$$



USA.gov is the U.S. government's official web portal to all federal, state and local government web resources and services.